Tracking 30995 objects as of 7-Jul-2025
HD Live streaming from Space Station
objects crossing your sky now

GP-B

Track GP-B now!
10-day predictions
GP-B is classified as:


NORAD ID: 28230
Int'l Code: 2004-014A
Perigee: 626.1 km
Apogee: 631.0 km
Inclination: 89.8 °
Period: 97.1 minutes
Semi major axis: 6999 km
RCS: 10.7347 m2 (large)
Launch date: April 20, 2004
Source: United States (US)
Launch site: AIR FORCE WESTERN TEST RANGE (AFWTR)
Your satellite tracking list
SL-8 DEB
Track 1 satellite(s)




NASA's NSSDC Master Catalog

Two Line Element Set (TLE):
1 28230U 04014A   25187.59979367  .00000570  00000-0  68938-4 0  9992
2 28230  89.8370  57.0095 0003492  89.5250 270.6375 14.82508051601130
Source of the keplerian elements: AFSPC